Flag for Kazakhstan Weather past 2 weeks in Astana, Kazakhstan

Now
57 °F

Passing clouds.


Feels Like: 55 °F
Forecast: 28 / 40 °F
Wind: 8 mph from Southwest

Location: Astana


UV Index: 0 (Low)

Visibility: N/A


Pressure: 29.83 "Hg

Humidity: 41%

Dew point: 34 °F

Location of AstanaLocation

Historic Weather in Astana

°F

Astana temperature yesterday

Maximum temperature yesterday: 64 °F (at 2:30 PM)
Minimum temperature yesterday: 36 °F (at 6:00 AM)
Average temperature yesterday: 52 °F

Past Weeks' High & Low Weather Summary

 TemperatureHumidityPressure
High66 °F (Apr 18, 2:00 PM)100% (Apr 7, 12:00 PM)30.48 "Hg (Apr 7, 12:00 PM)
Low18 °F (Apr 12, 5:30 AM)19% (Apr 18, 4:30 PM)29.45 "Hg (Apr 7, 8:00 AM)
Average42 °F58%30.12 "Hg
* Reported Apr 6 9:30 AM — Apr 21 9:30 AM, Astana, Weather by CustomWeather, © 2014

Note: Actual official high and low records may vary slightly from our data, if they occured in-between our weather recording intervals... More about our weather records

Advertising

Historic Weather Conditions — Data for Previous 24 hours

 ConditionsComfort  
Time TempWeatherWind HumidityBarometerVisibility
9:30 AM
Apr 21
55 °FSunny.8 mph47%29.83 "Hg10 mi
8:30 AM50 °FSunny.6 mph67%29.86 "Hg10 mi
8:00 AM46 °FSunny.6 mph76%29.86 "Hg10 mi
7:30 AM45 °FPassing clouds.3 mph71%29.86 "Hg6 mi
7:00 AM39 °FPassing clouds.6 mph81%29.86 "Hg6 mi
6:30 AM36 °FPassing clouds.6 mph87%29.89 "Hg6 mi
6:00 AM37 °FPassing clouds.3 mph81%29.89 "Hg6 mi
5:30 AM36 °FFog.3 mph93%29.89 "Hg3 mi
5:00 AM37 °FFog.3 mph87%29.89 "Hg3 mi
4:30 AM36 °FFog.6 mph93%29.92 "Hg3 mi
4:00 AM39 °FClear.6 mph81%29.92 "Hg10 mi
3:00 AM39 °FPassing clouds.3 mph87%29.95 "Hg4 mi
2:30 AM39 °FPassing clouds.6 mph87%29.95 "Hg4 mi
2:00 AM39 °FPassing clouds.3 mph81%29.95 "Hg3 mi
1:30 AM39 °FPassing clouds.6 mph81%29.95 "Hg3 mi
1:00 AM41 °FClear.3 mph76%29.98 "Hg10 mi
12:30 AM43 °FClear.3 mph66%29.98 "Hg10 mi
12:00 AM48 °FPassing clouds.1 mph43%29.98 "Hg4 mi
11:30 PM
Apr 20
50 °FClear.1 mph40%29.98 "Hg10 mi
11:00 PM54 °FClear.3 mph30%29.98 "Hg10 mi
10:30 PM55 °FClear.3 mph28%29.98 "Hg10 mi
10:00 PM55 °FClear.3 mph28%30.01 "Hg10 mi
9:30 PM55 °FClear.3 mph31%30.01 "Hg10 mi
9:00 PM55 °FPassing clouds.3 mph33%30.01 "HgN/A
8:30 PM57 °FPassing clouds.3 mph31%29.98 "HgN/A
8:00 PM59 °FSunny.3 mph29%29.98 "Hg10 mi
7:30 PM63 °FSunny.8 mph27%29.98 "Hg10 mi
7:00 PM63 °FSunny.10 mph27%30.01 "Hg10 mi
6:30 PM64 °FPassing clouds.10 mph28%30.01 "HgN/A
6:00 PM64 °FPassing clouds.13 mph28%30.01 "HgN/A
5:30 PM64 °FPassing clouds.13 mph30%30.01 "HgN/A
5:00 PM64 °FPassing clouds.10 mph30%30.01 "HgN/A
4:30 PM64 °FPassing clouds.13 mph28%30.01 "HgN/A
4:00 PM64 °FPassing clouds.13 mph30%30.01 "HgN/A
3:30 PM64 °FPassing clouds.13 mph30%30.01 "HgN/A
3:00 PM64 °FPassing clouds.10 mph30%30.01 "HgN/A
2:30 PM64 °FPassing clouds.13 mph30%30.04 "HgN/A
2:00 PM63 °FPassing clouds.10 mph32%30.04 "HgN/A
1:30 PM63 °FSunny.10 mph37%30.04 "Hg10 mi
1:00 PM61 °FSunny.10 mph39%30.04 "Hg10 mi
12:30 PM61 °FSunny.8 mph39%30.04 "Hg10 mi
12:00 PM61 °FPassing clouds.6 mph39%30.04 "HgN/A
11:30 AM61 °FPassing clouds.8 mph39%30.07 "HgN/A
11:00 AM59 °FPassing clouds.8 mph42%30.07 "HgN/A
10:30 AM57 °FPartly sunny.10 mph44%30.07 "HgN/A
10:00 AM55 °FPartly sunny.10 mph55%30.07 "HgN/A
Weather by CustomWeather, © 2014

See weather overview